Dewpoint
71 69 69 71 72 75 70 69 59 60 60 50 45 48 51 55 54 55 55 54 55 56 56 55 54 57 58 56 58 58 59 55 56 52 55 64 68 69 71 70 70 70 71 73 74 74 74 75 76 76 75 75 76 76 76 76 76 76 76 76 77 77 77 76 76 76 75 75 76 75 75 75 75 76 76 76 75 76 76 76 76 75 76 76 76 76 76 76 75 75 76 76 77 77 77 77 76
68 69 71 74 76 72 65 67 60 53 57 46 53 53 53 56 56 52 52 55 54 54 55 55 55 57 57 57 57 59 59 61 63 63 65 67 68 70 69 70 69 69 70 72 73 74 74 75 76 75 75 76 76 76 76 76 76 76 76 76 76 77 77 76 76 76 76 76 76 76 76 76 75 75 75 75 76 76 76 76 76 75 75 75 75 76 76 76 76 75 75 76 76 76 76 76 76
68 70 74 73 72 70 68 67 55 53 44 47 51 50 53 53 51 52 54 53 54 55 55 55 54 54 55 57 58 59 58 62 63 64 65 68 67 68 69 69 69 69 69 70 72 73 74 75 76 75 76 76 76 76 76 76 76 76 76 76 76 77 76 76 76 75 76 76 76 76 76 75 75 75 75 75 75 75 76 76 75 75 75 75 75 75 75 75 76 76 75 76 76 76 76 76 75
70 73 75 73 67 71 62 61 57 52 45 47 48 51 51 51 51 53 54 53 55 55 55 56 55 57 59 58 59 60 61 62 64 64 65 66 67 67 69 70 70 68 69 71 72 73 74 76 76 76 76 76 76 76 75 75 76 75 75 76 76 77 76 76 76 75 75 76 76 76 75 76 75 75 74 75 76 76 76 76 76 75 75 75 75 75 75 76 76 76 76 76 76 76 76 75 75
70 77 76 71 67 62 61 57 54 46 48 48 52 51 52 52 52 52 52 54 56 54 55 55 55 58 60 62 63 58 59 63 64 65 65 66 67 66 68 68 68 68 70 72 72 73 74 76 76 75 76 75 75 75 76 75 75 76 75 76 76 76 76 76 76 75 75 75 75 75 76 75 76 75 75 75 76 76 76 76 75 75 76 76 76 75 75 75 76 76 76 76 76 76 76 75 75
71 73 74 74 65 66 64 58 57 49 50 54 51 51 52 52 52 52 52 53 54 55 56 56 55 56 57 58 60 58 60 60 63 65 65 64 66 64 65 69 70 70 70 71 72 73 75 76 76 75 75 75 75 76 75 75 75 75 75 75 76 76 76 76 77 76 75 76 75 75 76 76 74 74 74 75 75 76 76 75 75 76 76 76 76 76 76 76 75 75 75 75 76 75 75 75 75
72 73 71 70 67 66 57 51 51 49 52 53 51 51 52 53 53 51 50 51 52 56 56 56 57 57 58 59 59 62 62 63 64 65 65 64 65 64 66 68 69 70 71 72 73 74 75 76 75 75 75 75 76 76 75 75 76 75 75 75 75 76 76 76 76 76 76 76 75 75 76 76 76 75 75 75 76 76 75 75 76 76 75 75 76 76 76 75 75 75 75 75 75 75 75 76 75
73 67 69 64 58 61 56 49 51 51 51 54 53 53 54 52 54 52 49 49 51 51 55 56 57 57 57 62 60 64 65 66 64 64 64 64 64 68 69 68 69 70 71 72 74 74 76 76 75 75 75 76 76 76 75 75 75 75 75 75 75 75 75 75 75 76 76 75 75 75 75 75 76 76 76 76 76 76 75 75 76 76 75 75 75 76 76 75 75 75 75 75 75 75 75 75 75
71 69 69 64 56 57 55 50 51 55 55 57 56 59 58 54 51 51 49 50 51 52 52 54 57 59 59 60 62 65 64 63 63 66 64 64 64 68 68 68 69 70 71 73 73 74 75 76 75 75 75 76 76 76 75 74 75 75 75 75 75 75 75 75 76 76 76 75 75 75 75 76 76 76 76 76 76 75 75 76 75 76 76 76 75 75 76 75 75 75 75 75 75 75 75 75 75
71 68 60 60 60 53 50 49 51 51 52 55 55 56 56 55 54 52 50 49 50 52 54 55 58 58 59 57 60 63 62 63 63 62 63 63 66 69 70 69 68 69 71 70 71 73 74 76 75 75 76 76 76 75 75 75 75 75 75 75 75 75 75 75 76 76 75 75 75 75 75 76 75 75 75 75 75 75 76 76 76 76 76 75 75 76 75 75 75 75 75 75 75 75 75 75 75
62 67 65 59 53 52 53 53 51 55 54 55 56 57 54 53 51 49 52 50 49 51 54 57 57 58 59 59 61 62 62 62 61 61 62 63 67 68 67 68 69 69 68 70 71 74 74 75 77 75 75 76 75 74 74 75 75 75 74 75 75 75 75 75 76 76 75 75 75 75 75 76 75 75 75 74 75 75 76 76 75 76 75 75 74 74 75 75 75 75 75 76 75 75 75 75 75
62 62 62 55 54 52 46 49 53 52 54 54 55 57 54 54 51 47 47 47 49 51 52 56 56 58 57 56 59 59 61 61 60 60 61 63 71 70 70 67 67 69 69 71 72 73 73 74 74 75 75 76 75 75 74 74 75 75 75 75 75 75 75 75 75 75 75 75 75 75 75 75 74 74 74 74 74 75 75 75 75 75 75 75 74 74 74 75 75 75 75 75 75 74 74 75 75
64 61 58 56 53 53 50 50 51 53 52 53 53 56 56 53 51 47 47 48 49 50 51 54 56 57 57 58 59 59 60 60 61 61 61 61 69 71 72 69 66 68 69 71 72 73 73 73 73 75 75 76 76 75 75 75 75 75 76 75 75 75 75 75 75 74 75 75 75 75 75 75 75 74 74 74 74 75 75 75 75 75 75 74 74 74 74 75 75 75 75 75 75 74 74 75 75
63 64 61 55 57 53 49 51 53 51 51 54 55 57 58 53 50 52 50 48 48 49 51 56 58 57 56 57 58 59 59 60 61 60 61 63 66 70 73 70 68 67 68 71 72 72 73 73 74 73 74 75 74 75 75 75 75 76 76 76 76 76 75 75 75 75 75 75 75 75 75 75 75 74 74 74 74 74 74 74 75 75 75 75 75 74 75 74 74 74 75 76 75 75 75 75 75
62 67 61 59 55 48 52 55 57 51 49 53 57 58 54 56 55 52 50 46 48 50 52 53 54 56 55 57 58 58 59 60 60 60 62 62 63 71 71 68 66 66 68 70 71 72 72 73 74 74 74 74 74 75 74 74 75 76 76 76 76 76 75 75 75 75 75 74 75 75 74 75 75 75 75 75 75 75 75 75 75 75 75 74 74 74 75 74 74 75 75 76 76 75 75 75 75
67 65 61 57 55 52 49 51 49 48 49 53 56 56 54 54 57 55 54 48 48 49 49 47 53 54 55 57 58 58 58 59 59 59 59 62 64 67 67 66 67 68 69 69 71 71 72 73 73 73 74 74 74 74 75 74 74 75 76 75 75 75 75 75 75 75 75 74 75 75 75 75 75 74 75 74 75 75 75 74 75 75 75 74 74 74 74 74 74 75 75 76 76 75 75 75 76
69 64 57 55 54 54 49 49 46 48 51 54 54 55 54 55 54 54 51 48 48 50 47 49 51 56 55 57 58 58 58 58 61 59 60 61 63 71 65 68 68 69 70 70 70 71 71 72 73 74 74 74 74 74 74 74 74 75 75 75 75 75 75 75 75 76 75 75 75 75 75 74 75 75 74 73 75 74 74 75 75 76 75 75 75 74 75 75 75 75 75 76 76 76 76 76 76
66 57 55 53 53 53 54 56 54 52 51 52 56 55 55 53 53 52 50 48 48 49 51 53 54 57 56 57 58 57 57 59 58 59 59 60 62 62 66 66 69 69 69 70 68 69 70 72 73 74 73 73 73 74 74 75 75 75 75 74 75 75 75 75 76 75 75 75 75 75 76 76 75 76 75 75 75 74 74 76 75 76 76 76 75 75 76 76 76 76 76 75 76 76 76 75 75
60 57 58 51 56 58 62 62 61 54 51 55 54 54 54 53 53 52 48 45 46 46 52 54 54 55 56 57 57 57 57 58 57 57 59 60 61 61 64 66 69 71 71 71 69 69 70 71 72 72 72 73 73 73 74 74 75 76 76 76 75 75 75 75 75 76 75 75 75 75 76 75 75 76 76 75 75 75 75 76 76 76 76 76 76 76 76 77 77 76 76 75 76 76 75 75 75
58 58 51 55 60 63 62 63 63 62 54 54 53 51 53 52 53 50 48 46 46 48 51 52 52 53 55 55 56 56 57 57 57 57 56 59 60 62 63 64 67 71 69 69 69 70 70 71 72 73 73 73 74 73 74 75 75 76 75 75 74 74 75 74 76 76 76 75 74 75 75 76 75 77 74 74 75 74 75 76 76 76 76 76 76 76 77 77 76 76 76 76 76 75 75 74 74
58 58 57 59 62 63 60 63 65 65 58 53 54 51 50 52 54 52 49 50 50 47 50 51 52 53 53 55 55 56 56 56 57 56 56 58 58 60 62 63 64 67 68 69 71 71 69 70 71 73 73 73 73 73 73 74 75 74 74 74 73 73 73 75 75 75 76 76 76 75 74 74 74 74 75 75 75 75 75 75 75 75 75 75 77 75 75 74 75 75 75 76 75 74 73 73 72
60 59 60 63 64 61 62 63 65 64 60 55 53 52 50 53 53 49 52 52 48 48 49 52 53 53 53 53 54 55 55 56 56 56 56 57 56 59 59 60 63 66 67 68 69 71 70 71 72 73 72 73 73 73 73 74 74 73 73 74 74 73 73 75 75 75 74 76 75 74 75 74 74 73 75 75 75 74 74 73 74 74 74 74 74 74 73 74 74 73 73 73 73 72 70 70 68
57 58 61 63 62 61 63 63 62 55 61 59 58 59 57 55 54 56 53 52 51 49 50 52 53 53 53 53 54 54 55 55 56 56 56 56 55 57 56 59 63 65 67 67 68 70 70 71 72 72 72 74 75 75 74 74 74 75 73 74 73 73 74 73 74 73 73 75 75 74 73 73 72 73 73 74 74 73 72 72 72 73 73 73 72 74 72 73 71 72 71 72 70 70 70 66 67
61 61 60 61 63 61 63 64 60 58 64 63 63 59 62 56 55 57 55 50 50 49 50 52 52 53 53 53 53 53 54 55 54 56 55 56 56 56 56 57 61 64 67 67 68 68 70 69 72 72 73 73 74 74 73 73 77 74 74 75 74 74 74 73 73 73 73 73 73 73 73 72 71 71 72 73 72 72 71 71 72 71 71 70 71 73 68 69 69 70 71 69 67 67 59 61 62
56 59 63 60 64 63 61 59 60 63 65 65 64 63 62 59 57 54 56 51 50 50 50 51 52 53 52 52 53 53 54 55 53 55 55 56 56 55 56 57 61 62 65 66 67 68 68 70 71 71 72 73 73 74 73 73 73 74 74 73 76 74 74 73 73 72 71 71 71 72 72 69 69 70 71 71 73 72 71 70 69 68 68 68 70 68 67 69 69 66 69 68 68 67 60 60 62
53 57 62 62 63 62 61 60 61 64 63 63 64 63 63 63 57 55 53 50 51 50 50 50 52 52 51 52 53 53 53 54 54 54 55 56 55 55 56 57 60 60 63 64 65 68 68 69 71 71 71 72 73 74 76 74 73 73 74 77 77 75 75 75 73 70 69 68 68 70 68 67 67 67 70 70 69 71 69 69 67 66 65 68 67 66 67 68 67 68 70 68 63 64 67 59 64
51 57 60 62 61 60 61 61 62 64 64 62 62 62 63 63 61 52 56 55 52 51 50 51 51 51 51 52 53 53 53 54 54 54 55 55 55 55 56 57 58 58 61 61 63 67 68 69 69 72 71 73 74 74 75 74 74 74 76 75 73 75 73 75 72 67 65 64 68 74 75 76 72 61 63 67 68 67 68 67 67 68 66 64 71 65 66 67 65 65 63 65 72 69 65 65 60
51 55 57 61 61 63 61 62 62 64 62 63 62 62 65 63 62 57 54 55 52 51 50 51 51 51 51 52 53 54 54 54 55 54 54 54 54 55 55 57 57 57 59 60 64 67 66 68 68 70 72 73 74 74 75 74 73 73 75 73 73 76 75 72 72 69 66 65 68 72 75 73 76 70 64 66 65 68 65 66 69 70 66 72 73 68 67 69 72 65 64 66 67 66 70 69 68
52 55 55 54 57 60 60 62 62 62 62 63 63 60 60 61 59 57 56 55 54 54 51 51 51 51 52 53 53 55 55 55 55 55 55 55 55 55 56 55 56 56 58 60 62 65 65 67 68 70 70 72 73 72 73 72 73 72 73 72 73 73 74 72 69 68 69 71 74 75 76 74 79 74 71 72 70 68 66 70 66 73 72 73 72 66 67 76 73 75 74 69 71 69 72 68 57
51 57 53 53 57 58 60 63 61 60 63 63 61 49 52 58 60 56 58 55 55 56 55 51 51 52 52 52 53 53 55 55 55 56 57 57 55 54 55 56 57 56 58 61 60 62 63 67 67 69 71 71 71 73 73 74 74 74 72 71 73 74 71 70 69 69 71 74 73 75 74 73 75 76 72 72 69 68 70 73 69 73 78 76 75 75 74 78 74 72 68 74 71 70 67 66 61
51 55 53 44 54 50 59 61 60 59 63 64 62 54 53 56 58 60 57 55 56 55 57 52 52 51 52 52 53 54 55 56 55 55 56 57 56 55 56 56 57 57 59 59 58 60 61 65 65 68 69 71 71 74 73 73 74 72 72 72 72 73 70 69 61 67 70 71 74 76 74 77 76 75 75 78 74 74 68 71 70 74 77 77 73 78 78 78 77 72 68 64 66 67 62 67 58
49 52 41 42 40 51 58 59 57 57 61 62 57 54 54 54 55 60 60 62 59 57 57 61 56 51 51 53 53 53 55 55 55 55 56 57 56 56 56 57 56 58 58 60 58 61 62 63 64 67 68 69 71 73 73 73 72 72 73 72 71 73 69 64 64 65 67 70 72 76 75 74 75 77 78 78 75 75 69 71 69 77 77 77 75 79 78 76 74 69 74 72 72 57 63 61 65
57 46 45 38 39 45 55 60 59 59 60 58 59 51 53 56 57 59 61 62 60 61 58 57 52 51 51 52 53 54 55 55 55 55 57 58 58 57 57 58 56 59 59 60 59 61 62 63 64 64 66 66 70 71 73 73 73 72 72 70 69 71 66 62 65 65 67 69 69 70 75 76 76 78 77 77 79 73 74 70 71 71 76 75 76 76 76 75 71 63 76 76 73 70 63 53 59
46 45 40 41 39 35 50 58 59 59 58 54 55 53 51 56 58 58 61 61 59 58 59 57 56 56 52 53 52 55 56 55 56 57 57 57 58 58 58 62 57 60 60 60 60 63 64 64 64 64 66 65 69 70 73 71 72 73 71 69 71 68 62 60 61 62 65 64 65 68 73 74 77 77 78 79 78 74 74 73 71 71 75 78 79 75 78 73 73 68 73 76 72 74 72 65 59
40 41 42 40 41 33 40 53 56 52 56 51 49 50 53 55 59 58 57 61 56 54 55 54 54 55 52 51 53 55 55 55 59 58 57 58 59 57 58 60 57 60 60 61 60 65 65 64 66 67 68 69 68 72 73 71 71 73 68 68 67 69 65 60 60 63 63 64 62 69 75 72 76 77 78 78 79 77 74 77 73 74 75 79 79 77 75 74 75 73 69 76 75 75 73 68 63
41 40 35 35 33 35 35 49 57 52 50 51 49 50 53 55 55 58 58 61 58 56 56 55 56 53 52 52 55 55 55 54 58 58 59 58 60 58 59 60 58 61 60 62 64 64 66 65 66 69 69 67 68 71 71 69 69 69 68 68 68 69 64 63 64 62 64 63 63 69 74 74 76 77 78 78 78 76 74 76 75 73 74 74 74 72 76 73 73 73 73 70 74 71 76 69 63
33 33 34 36 33 33 36 49 55 54 49 44 48 47 53 55 55 55 54 59 57 57 53 55 55 56 52 51 54 55 55 55 58 58 58 58 58 58 60 60 60 61 60 63 63 63 65 65 68 68 71 71 70 70 70 69 69 69 68 66 65 65 67 63 60 61 62 63 66 69 74 71 75 76 78 78 77 76 75 76 76 73 73 76 76 76 73 71 73 75 76 75 70 71 62 60 64
32 31 32 32 32 30 39 39 40 49 43 49 48 48 48 52 53 52 54 59 56 55 55 55 54 56 53 53 52 55 55 56 57 58 58 58 58 57 59 59 63 60 62 64 64 64 67 65 67 68 72 72 70 70 70 69 70 68 68 67 65 64 65 65 63 62 62 61 72 74 74 72 75 76 78 79 78 77 76 75 75 76 76 74 75 77 73 76 76 73 70 76 71 66 72 59 60
23 29 31 28 29 34 38 40 38 48 46 43 43 44 47 48 51 54 56 53 58 56 55 54 54 53 54 54 53 54 57 56 56 58 57 58 58 57 59 59 61 60 62 63 64 64 65 66 70 70 70 71 70 70 71 71 72 72 70 68 67 65 63 63 61 62 62 62 65 70 74 78 76 76 76 78 77 75 76 76 75 77 78 77 77 75 75 74 76 72 74 72 71 68 71 64 67
23 24 26 25 30 29 28 36 45 48 43 41 37 37 46 51 53 52 54 53 54 60 55 54 53 53 54 54 53 53 56 57 56 56 56 57 58 58 59 60 61 62 63 63 63 65 64 69 70 71 71 71 72 73 73 70 72 76 75 76 73 72 67 66 66 66 64 63 65 68 76 77 77 72 71 72 71 75 76 77 75 77 75 76 77 76 74 73 75 76 69 70 74 69 63 66 72
19 21 24 25 22 24 26 37 42 47 42 42 37 39 38 53 46 50 54 54 56 56 55 58 57 56 58 60 54 55 54 57 56 56 57 56 58 58 58 61 60 61 62 63 64 64 64 66 70 71 71 71 71 73 73 73 75 74 76 75 74 75 71 70 63 62 63 68 66 69 72 75 76 73 71 72 72 77 77 78 76 74 76 77 76 76 76 70 69 68 71 74 72 72 67 73 72
19 19 19 21 22 22 32 36 41 36 37 45 40 30 31 52 47 45 51 52 53 54 53 52 54 59 61 56 56 55 55 59 57 57 57 56 57 58 59 60 61 61 62 62 65 64 66 67 70 72 72 71 71 73 75 77 76 75 75 73 71 71 71 67 62 61 61 64 63 67 69 72 73 72 72 70 72 76 77 77 77 75 73 76 76 73 72 69 72 72 71 73 69 70 73 70 68
18 15 17 20 20 22 24 17 21 26 25 41 38 33 28 32 46 48 51 53 52 54 53 53 53 56 54 56 58 55 55 56 56 56 57 57 59 58 58 58 60 60 61 63 63 64 66 67 69 70 72 73 73 75 74 74 74 75 73 72 69 69 69 65 66 60 60 63 64 64 68 70 71 71 71 69 76 77 77 77 77 75 76 74 75 77 75 68 67 68 70 72 73 76 76 76 72
15 19 16 17 20 15 13 15 14 22 32 37 32 31 29 28 44 49 52 50 50 52 54 54 53 54 53 55 53 58 55 54 56 56 56 57 57 58 58 58 59 60 61 62 65 65 67 70 71 73 73 73 75 75 74 74 74 75 74 72 71 68 66 67 67 67 61 67 64 63 66 69 70 72 74 75 75 74 76 76 77 77 74 71 74 73 72 70 74 73 76 74 76 82 77 75 73
16 18 16 16 12 15 16 21 20 23 18 23 25 27 31 33 43 48 50 47 49 50 51 52 53 53 54 57 54 57 55 56 55 55 56 58 57 56 58 58 58 59 60 62 63 68 65 67 72 72 74 74 74 75 73 74 75 75 74 73 73 72 69 67 68 68 63 67 65 65 67 66 69 73 73 73 75 74 75 75 76 76 74 74 76 73 72 69 71 74 75 76 76 81 75 74 79
15 16 17 17 18 18 18 20 19 27 21 25 26 27 28 32 34 45 43 42 44 46 50 51 53 54 54 53 56 56 56 57 55 55 57 57 57 58 57 58 58 58 59 62 62 62 64 68 71 72 74 75 73 73 73 73 74 74 73 73 73 73 73 74 71 69 73 70 67 70 69 68 65 67 72 74 75 74 74 75 73 72 71 69 72 71 73 72 72 74 73 71 75 74 79 76 75
16 8 14 16 17 20 19 23 26 27 24 26 26 25 26 29 34 30 33 40 51 48 48 52 53 53 53 53 53 59 58 57 55 55 57 57 58 58 59 59 61 61 64 63 63 63 65 66 69 72 73 74 74 73 72 73 73 72 72 73 73 73 73 72 73 70 70 73 67 64 68 69 65 65 68 73 73 73 73 73 71 69 70 72 73 72 73 68 69 72 71 71 77 77 76 77 71
15 15 14 14 20 21 25 27 30 23 22 26 24 24 24 26 28 31 33 35 48 46 51 51 53 54 55 56 53 52 55 58 56 55 54 57 59 58 58 60 62 62 63 64 62 62 68 68 72 73 74 74 74 73 73 73 72 72 73 73 73 74 73 71 72 70 67 70 65 67 69 69 71 65 68 71 73 71 73 72 73 71 72 71 71 72 71 70 68 68 73 76 76 76 77 75 72
14 15 18 15 20 27 22 27 24 27 24 27 25 28 31 27 32 31 34 36 47 44 51 53 51 50 53 56 54 56 51 51 56 56 58 59 57 57 57 62 63 67 66 67 63 64 67 69 71 72 74 73 72 73 72 72 72 72 73 74 74 75 74 74 73 72 68 68 65 64 71 69 72 73 66 71 71 71 72 73 71 71 73 72 73 74 75 77 75 71 73 71 71 75 75 73 73
13 15 16 18 17 21 24 26 29 28 28 27 28 35 31 30 26 33 37 39 47 46 47 50 52 51 57 53 55 53 56 57 55 55 56 61 61 58 60 64 65 66 63 63 65 66 66 67 71 72 74 73 73 74 72 72 73 73 73 74 74 75 74 73 73 72 67 66 69 67 62 64 68 67 65 71 70 70 69 70 71 71 74 74 74 76 77 76 75 72 72 71 69 74 74 75 75
12 13 11 16 22 20 25 25 22 22 23 24 32 32 29 25 43 40 44 45 46 46 51 51 52 55 58 57 55 53 59 58 57 60 63 64 59 63 61 63 66 65 64 67 64 67 69 69 72 74 75 73 74 74 74 74 74 74 74 73 73 73 73 73 73 72 71 64 62 63 67 63 64 65 67 70 70 69 67 68 70 70 71 75 76 76 72 74 76 76 74 76 75 72 72 71 69
13 11 11 12 17 21 20 22 18 17 20 22 32 34 33 31 39 39 43 41 44 46 46 54 56 56 56 53 55 52 58 57 57 57 59 64 64 62 66 66 65 65 68 69 68 67 66 69 73 73 74 74 74 74 73 73 73 73 74 73 73 74 74 73 74 74 73 70 64 64 67 69 65 66 67 67 66 69 68 68 70 67 72 74 75 75 74 73 74 73 75 73 72 65 69 71 71
11 10 11 12 14 14 21 20 13 14 17 21 23 26 28 28 33 34 39 39 44 45 45 44 46 47 49 49 47 45 49 56 59 59 62 66 60 62 64 64 64 65 68 68 68 67 71 72 72 73 74 74 75 74 72 74 74 74 74 73 72 73 72 71 72 72 70 70 68 65 63 63 62 65 63 65 65 69 69 69 68 67 71 72 74 75 73 74 75 72 70 74 71 68 70 71 70
11 10 11 12 13 14 18 14 21 15 15 24 25 21 21 23 41 35 38 38 41 44 42 44 46 48 42 46 50 54 53 55 67 60 65 67 64 64 68 66 67 67 67 66 69 65 69 72 71 73 73 73 71 72 72 73 73 73 73 73 73 72 71 71 72 70 70 70 68 67 63 61 60 59 62 61 62 65 70 72 69 69 68 68 70 71 72 72 73 72 70 74 71 73 73 74 73
10 11 14 11 13 14 18 15 13 14 19 22 20 20 23 25 36 34 37 37 38 42 44 44 44 44 47 47 50 56 57 59 60 63 65 68 66 67 67 67 68 70 67 65 66 65 69 70 71 73 72 71 71 70 71 71 72 70 71 71 71 72 72 71 72 71 69 69 67 64 62 62 59 62 65 68 65 61 66 69 70 67 68 69 70 68 71 71 72 72 69 69 70 75 74 74 74
11 13 11 13 13 15 18 17 18 18 16 18 22 19 29 34 38 27 32 38 40 41 40 45 45 45 52 53 52 52 54 59 61 59 61 63 65 65 67 68 68 68 68 65 62 66 69 71 72 72 72 72 72 70 69 68 69 70 71 72 72 72 72 71 71 69 67 66 65 64 63 60 60 60 60 64 64 63 63 64 64 64 63 63 66 65 67 70 71 70 68 65 67 73 72 73 71
9 11 12 11 10 12 12 14 15 15 20 19 21 37 35 37 43 33 37 40 42 42 43 45 53 53 53 54 52 55 56 57 63 63 65 63 63 64 65 68 70 72 70 69 68 69 69 69 71 71 72 70 69 69 67 67 67 68 71 71 70 70 69 71 70 69 67 66 64 64 62 61 61 60 60 60 62 65 68 66 65 66 64 65 69 67 68 69 71 71 71 72 72 74 71 71 74
8 10 12 11 10 13 13 17 14 13 17 23 22 35 36 36 37 46 41 42 44 44 41 41 48 52 54 55 54 57 59 57 59 63 62 62 64 63 65 67 69 70 70 69 69 71 67 70 70 72 72 71 67 67 66 67 67 66 67 70 70 71 69 69 69 70 68 66 63 63 64 63 61 61 63 61 62 60 63 65 64 63 65 63 68 70 66 66 68 71 70 64 67 72 76 74 75